Wind_Speed
56 58 60 62 64 66 68 70 72 74 75 76 76 78 80 81 82 83 85 86 87 88 88 88 90 92 93 94 95 96 98 99 101 103 105 107 109 110 113 116 119 121
53 54 56 58 60 61 63 65 67 69 71 72 73 74 75 77 78 80 81 82 83 84 85 86 87 88 88 89 91 93 95 96 98 100 102 104 105 107 108 110 113 116
51 52 53 55 56 58 59 61 63 65 66 68 69 71 72 73 74 76 77 78 79 81 82 82 83 84 85 87 89 90 91 93 95 98 100 102 104 105 106 107 109 111
50 51 52 53 54 55 56 57 59 60 62 64 66 67 69 70 71 72 73 74 75 76 77 78 79 81 83 85 86 87 88 90 92 94 96 98 101 103 104 106 108 109
49 49 50 51 52 53 54 55 56 57 58 60 61 63 65 66 67 68 70 70 71 72 73 74 75 77 78 79 81 83 85 87 89 91 92 94 97 99 101 104 106 107
46 47 48 49 50 51 52 53 53 54 55 56 58 59 60 61 63 64 65 66 68 69 70 71 72 72 73 75 76 79 81 83 85 86 87 90 92 95 97 100 102 104
43 44 46 47 48 49 50 51 51 52 53 54 55 56 57 58 59 60 61 62 63 64 65 67 68 69 71 72 73 75 76 78 79 81 83 85 88 90 93 96 98 99
39 40 42 44 45 47 48 49 49 50 50 51 53 54 55 55 55 56 57 58 59 60 62 63 64 66 67 68 70 71 73 74 76 77 79 81 83 86 89 91 93 96
35 36 37 39 40 42 44 46 47 47 48 49 51 52 52 52 52 52 53 54 56 57 59 60 60 62 63 65 67 68 70 72 73 74 76 78 80 82 85 87 89 92
33 33 34 35 36 38 40 42 44 44 45 46 48 48 49 49 49 48 50 52 53 54 55 56 57 59 61 62 63 64 65 67 68 70 72 74 76 79 82 84 86 88
31 31 31 32 34 35 37 39 40 42 42 44 45 45 46 46 45 46 48 50 50 50 52 54 56 58 59 59 60 60 61 61 63 64 66 69 72 75 78 80 83 85
28 29 29 30 31 33 35 37 38 39 39 41 42 42 43 43 42 43 46 47 46 47 49 52 54 55 56 56 57 57 57 58 59 60 62 64 67 70 73 76 79 82
27 27 27 28 28 30 32 35 37 37 37 37 38 39 40 40 39 41 42 42 42 44 46 48 50 52 53 54 54 55 55 55 56 57 59 60 62 65 68 71 74 78
27 26 25 25 25 26 28 31 35 37 37 36 35 35 35 36 37 38 38 37 38 40 43 45 47 48 50 51 52 53 53 54 54 55 56 58 59 61 64 66 69 73
27 26 25 24 23 23 24 27 31 34 36 35 34 32 32 32 34 35 34 34 36 38 39 41 43 45 46 48 49 51 51 52 53 53 54 56 57 59 60 62 65 69
26 25 25 24 23 22 22 23 26 30 33 34 33 32 31 31 31 32 32 33 34 36 37 39 40 42 43 45 46 48 49 50 50 51 52 53 55 56 58 60 62 65
23 24 24 24 23 22 21 21 23 26 29 31 31 30 30 29 29 30 30 31 33 35 36 37 39 40 41 43 44 45 46 47 48 49 50 51 52 54 56 58 60 62
21 21 22 22 22 22 21 21 21 22 25 27 27 27 27 28 28 29 29 30 31 33 35 36 37 38 39 40 41 42 44 45 46 47 48 50 50 51 53 55 57 60
21 20 20 20 20 20 20 20 20 20 21 23 24 25 25 26 27 27 28 29 30 31 33 34 35 36 37 38 39 40 41 42 43 45 46 48 49 50 50 52 54 57
22 21 20 19 19 19 19 19 18 19 19 20 21 22 23 24 25 26 27 28 28 29 31 32 33 34 35 35 36 38 39 40 41 42 44 45 46 47 49 50 51 53
22 22 22 20 19 18 18 18 18 18 18 19 20 20 21 22 23 24 25 26 27 27 28 30 31 32 33 34 34 35 37 38 39 40 41 42 43 45 46 48 49 50
22 22 22 21 21 19 18 17 17 17 17 18 19 19 20 21 21 22 23 24 25 26 27 28 29 31 32 32 32 33 34 36 37 38 39 40 41 42 44 46 47 48
24 22 21 20 20 19 19 18 17 16 16 17 17 18 19 19 20 21 21 22 23 24 25 27 28 29 30 31 32 32 32 34 35 36 37 38 40 41 42 44 45 47
27 24 22 20 18 18 18 17 17 16 16 16 16 16 17 18 19 19 20 21 21 22 23 25 25 27 28 30 30 31 31 32 33 34 35 37 38 40 41 42 43 45
30 27 25 22 20 18 17 16 16 16 16 15 15 15 15 16 17 17 18 19 20 21 22 23 24 25 26 27 28 29 29 30 31 32 33 35 36 38 39 40 41 43
33 30 29 26 24 21 19 17 16 15 15 15 15 15 15 15 15 15 16 17 18 19 20 21 22 23 24 25 26 27 27 27 28 30 31 32 34 35 36 38 40 41
Wind_Direction
264 262 260 259 258 257 257 257 257 256 256 255 254 253 253 253 253 252 252 252 252 252 251 250 249 249 248 248 247 247 246 246 245 245 244 244 243 241 240 239 239 239
267 265 262 260 259 258 257 256 256 256 256 256 255 254 254 253 252 252 252 252 252 252 252 251 251 250 250 249 248 247 247 246 246 245 245 245 244 243 242 241 240 239
271 268 266 263 261 260 258 256 256 255 255 255 255 254 254 253 253 252 252 252 251 251 251 251 251 251 250 249 248 247 247 246 245 244 244 244 244 244 243 243 241 240
273 271 269 267 265 263 261 260 258 256 255 254 254 254 254 253 253 253 252 252 252 251 251 250 250 249 248 248 248 248 247 246 245 245 244 243 243 243 243 242 242 241
273 272 270 269 267 266 264 263 261 260 258 257 255 255 254 254 253 253 253 253 252 252 251 250 250 249 248 248 248 247 247 246 246 246 245 244 244 243 243 242 242 242
272 271 270 269 268 266 265 264 262 261 260 259 258 257 256 255 254 254 253 252 252 252 251 251 250 250 249 248 247 246 246 245 245 245 245 245 244 244 244 243 243 242
271 270 269 268 268 267 266 264 263 262 260 259 258 258 257 256 255 255 254 253 253 252 251 250 250 250 249 248 248 247 246 246 245 245 244 244 244 244 244 244 243 243
273 271 269 268 267 266 265 265 263 262 261 260 259 258 257 256 255 255 255 254 254 253 252 251 250 249 249 248 248 247 247 246 245 244 243 243 242 242 242 242 243 243
278 274 271 269 267 266 265 265 264 262 261 260 259 259 259 258 257 256 256 255 254 253 253 252 252 251 250 249 247 246 245 245 244 243 243 242 242 241 241 241 241 241
282 278 275 272 269 267 266 265 264 263 262 260 260 260 260 259 259 257 256 255 254 254 254 254 253 252 250 249 248 247 246 245 244 244 243 242 241 241 241 241 240 240
285 282 278 275 272 270 268 267 266 264 264 263 262 261 260 259 258 257 255 255 254 254 254 253 253 252 252 251 250 249 248 247 245 244 243 242 241 241 240 240 240 240
288 285 281 278 275 273 271 270 268 266 265 264 264 263 262 261 259 256 255 254 253 252 252 252 253 253 253 253 253 252 250 248 247 245 243 242 241 240 239 239 239 240
294 289 284 280 277 274 273 273 272 270 267 265 264 264 264 264 262 259 258 257 255 253 252 252 253 253 254 254 254 253 252 251 249 247 245 243 241 240 239 238 238 238
301 296 291 285 280 276 273 272 273 273 272 270 268 267 267 267 266 264 263 262 259 255 253 252 252 253 253 254 254 254 253 252 250 249 247 245 243 241 239 238 238 238
307 303 299 294 287 281 275 272 271 273 274 274 274 273 271 269 267 267 266 264 261 258 256 254 253 252 252 252 253 253 252 252 251 249 248 246 245 243 241 239 238 238
310 307 305 301 296 289 281 275 271 271 273 275 277 276 274 272 270 268 267 264 262 260 258 256 254 252 251 251 251 251 251 251 250 249 248 247 245 244 242 240 239 238
315 312 309 306 302 297 290 282 276 273 274 276 278 278 277 276 274 271 268 266 263 261 259 257 256 254 253 252 251 251 251 250 249 249 248 247 246 244 243 241 240 238
321 317 313 309 306 302 297 290 283 278 277 278 278 279 278 276 275 272 269 267 264 263 261 260 258 257 255 254 253 252 252 251 249 248 247 247 246 245 243 242 240 239
328 323 319 314 310 306 301 297 291 286 283 281 280 280 278 276 275 272 270 268 266 264 263 262 260 259 257 255 254 253 252 252 250 249 247 246 246 245 244 242 241 240
336 332 328 322 317 312 307 302 297 293 290 287 285 283 280 278 277 275 273 271 269 267 266 265 263 262 260 257 255 253 252 251 250 249 248 247 246 245 244 243 242 241
344 340 336 331 326 320 314 308 303 299 295 292 290 287 284 281 278 276 274 272 270 268 266 265 264 263 262 259 257 255 254 252 250 249 249 248 247 246 245 245 243 242
353 348 343 338 333 329 323 317 311 305 300 296 292 290 287 284 281 279 276 274 272 270 268 266 265 264 263 261 258 256 255 253 252 250 248 247 246 246 245 245 244 243
355 352 349 345 341 336 331 326 321 314 307 301 296 292 289 286 283 280 277 275 272 270 268 267 265 264 264 263 260 257 255 254 252 251 249 247 245 245 244 244 244 243
355 354 353 351 348 344 340 334 329 323 317 309 303 297 293 289 285 282 278 275 273 270 268 266 265 264 263 263 261 259 256 254 252 250 249 247 245 244 243 243 242 242
358 357 356 355 354 352 349 344 338 331 325 318 311 304 298 293 289 285 281 278 274 271 269 267 265 264 262 262 261 259 257 255 252 250 248 247 245 244 243 242 241 241
0 359 358 357 356 354 352 350 346 340 333 326 319 313 306 300 294 289 285 280 277 273 271 269 266 264 263 261 260 259 257 254 252 250 247 246 245 244 243 242 242 241
Height
10012 10012 10012 10011 10012 10012 10012 10013 10013 10014 10015 10018 10020 10022 10023 10026 10030 10033 10035 10039 10042 10045 10049 10054 10057 10059 10064 10070 10075 10080 10085 10090 10094 10099 10102 10107 10115 10121 10126 10131 10138 10145
10001 10001 10001 10001 10001 10002 10003 10003 10003 10004 10005 10006 10009 10010 10013 10015 10018 10021 10024 10027 10031 10033 10037 10040 10044 10048 10053 10058 10061 10065 10070 10075 10079 10083 10087 10092 10098 10103 10109 10116 10122 10128
9989 9990 9990 9990 9990 9991 9992 9993 9993 9994 9995 9996 9998 9999 10001 10004 10007 10010 10013 10016 10019 10022 10025 10029 10033 10037 10040 10043 10046 10051 10056 10059 10063 10066 10071 10077 10081 10086 10093 10098 10103 10110
9979 9979 9979 9979 9979 9980 9981 9982 9983 9984 9985 9986 9987 9989 9991 9993 9996 9999 10002 10004 10007 10010 10013 10017 10021 10024 10026 10030 10034 10038 10042 10045 10048 10051 10056 10061 10065 10070 10076 10079 10084 10091
9970 9970 9969 9969 9970 9970 9970 9971 9972 9973 9975 9976 9977 9979 9981 9983 9986 9989 9991 9994 9996 9999 10002 10005 10008 10011 10015 10019 10023 10026 10029 10031 10034 10038 10043 10048 10051 10055 10060 10062 10068 10075
9963 9962 9961 9960 9960 9960 9961 9961 9962 9963 9964 9965 9967 9969 9971 9973 9976 9978 9981 9983 9985 9988 9991 9993 9996 10000 10003 10007 10010 10013 10015 10018 10022 10026 10031 10035 10038 10042 10046 10049 10055 10061
9957 9956 9954 9953 9952 9952 9952 9952 9953 9954 9955 9956 9957 9958 9960 9963 9965 9967 9970 9972 9975 9977 9980 9983 9986 9988 9991 9994 9997 10000 10003 10007 10010 10015 10019 10022 10025 10029 10032 10036 10042 10047
9949 9949 9948 9946 9945 9945 9944 9944 9944 9946 9946 9947 9947 9948 9951 9953 9955 9957 9959 9962 9964 9966 9969 9971 9974 9976 9979 9983 9986 9989 9992 9995 9998 10001 10005 10009 10012 10015 10018 10023 10028 10033
9942 9941 9941 9940 9939 9938 9937 9936 9936 9937 9938 9938 9939 9940 9942 9944 9947 9949 9951 9953 9954 9955 9957 9960 9963 9966 9969 9972 9974 9977 9979 9981 9985 9989 9992 9996 9999 10002 10005 10010 10014 10019
9935 9934 9934 9933 9932 9931 9930 9929 9929 9929 9930 9931 9932 9933 9934 9936 9939 9942 9943 9943 9945 9946 9948 9951 9953 9955 9957 9959 9962 9965 9968 9971 9975 9979 9982 9985 9988 9990 9993 9997 10001 10005
9930 9929 9928 9927 9926 9925 9924 9923 9922 9923 9923 9924 9925 9926 9927 9929 9932 9934 9934 9935 9937 9939 9941 9941 9942 9943 9945 9948 9951 9955 9958 9962 9965 9968 9971 9975 9978 9980 9983 9986 9989 9993
9925 9923 9922 9921 9920 9919 9918 9917 9916 9916 9917 9917 9918 9919 9920 9922 9925 9926 9926 9928 9931 9932 9933 9933 9934 9935 9937 9939 9941 9944 9947 9951 9954 9957 9960 9963 9966 9969 9972 9975 9978 9981
9920 9919 9918 9916 9916 9915 9913 9911 9910 9910 9910 9911 9912 9913 9913 9915 9917 9918 9920 9922 9924 9925 9926 9927 9927 9928 9929 9931 9932 9935 9938 9941 9944 9947 9950 9952 9955 9958 9961 9964 9967 9971
9916 9914 9913 9912 9911 9910 9909 9907 9905 9904 9904 9905 9906 9907 9909 9910 9910 9911 9914 9916 9917 9918 9919 9920 9921 9921 9922 9923 9924 9926 9928 9931 9934 9937 9940 9943 9946 9949 9951 9955 9958 9961
9912 9910 9909 9908 9907 9906 9905 9903 9901 9899 9898 9899 9900 9902 9903 9904 9904 9905 9907 9909 9909 9910 9911 9912 9913 9914 9915 9916 9917 9918 9920 9923 9925 9927 9930 9933 9937 9940 9943 9946 9949 9951
9909 9907 9905 9903 9902 9902 9901 9900 9898 9896 9894 9894 9895 9896 9897 9897 9898 9899 9900 9901 9902 9902 9903 9904 9905 9906 9907 9908 9910 9911 9913 9915 9917 9919 9922 9924 9927 9930 9933 9937 9940 9942
9907 9904 9902 9900 9899 9897 9897 9896 9894 9893 9891 9890 9891 9891 9891 9892 9892 9893 9894 9895 9895 9896 9897 9898 9899 9900 9901 9902 9903 9904 9906 9907 9909 9911 9913 9916 9919 9922 9925 9928 9931 9934
9905 9903 9900 9898 9896 9894 9893 9892 9890 9889 9888 9887 9887 9887 9887 9887 9887 9887 9888 9889 9890 9890 9891 9892 9893 9893 9894 9896 9897 9898 9899 9901 9903 9904 9906 9908 9911 9914 9917 9919 9922 9925
9904 9901 9899 9896 9894 9892 9890 9889 9887 9886 9885 9884 9883 9883 9883 9883 9882 9883 9883 9884 9884 9885 9885 9886 9886 9887 9888 9889 9890 9891 9892 9894 9896 9897 9899 9901 9903 9906 9908 9911 9914 9917
9902 9899 9897 9895 9892 9890 9888 9886 9885 9883 9882 9881 9880 9880 9879 9879 9879 9878 9878 9879 9879 9880 9880 9881 9881 9881 9882 9883 9884 9885 9886 9887 9889 9891 9893 9895 9897 9899 9901 9903 9906 9909
9901 9898 9895 9893 9891 9889 9886 9884 9883 9881 9880 9878 9877 9877 9876 9875 9875 9875 9874 9874 9875 9875 9875 9875 9875 9876 9876 9877 9878 9879 9880 9881 9882 9884 9886 9888 9891 9893 9895 9897 9899 9901
9901 9898 9894 9891 9889 9887 9885 9883 9881 9879 9878 9876 9875 9874 9873 9873 9872 9871 9871 9871 9871 9871 9871 9871 9871 9871 9871 9871 9872 9873 9874 9875 9876 9878 9879 9881 9883 9886 9888 9890 9892 9894
9900 9897 9894 9891 9888 9886 9883 9881 9879 9878 9876 9874 9873 9872 9871 9870 9869 9869 9868 9868 9867 9867 9867 9867 9867 9866 9866 9866 9867 9868 9869 9870 9871 9872 9874 9875 9877 9879 9881 9883 9885 9887
9899 9896 9893 9891 9888 9885 9883 9880 9878 9876 9874 9873 9871 9870 9869 9868 9867 9866 9865 9864 9864 9863 9863 9862 9862 9862 9862 9862 9862 9863 9864 9865 9866 9867 9868 9869 9871 9872 9874 9877 9879 9881
9898 9895 9892 9889 9887 9884 9882 9880 9877 9875 9873 9871 9869 9868 9867 9865 9864 9863 9862 9861 9860 9860 9859 9859 9858 9858 9858 9858 9858 9858 9859 9860 9861 9862 9863 9864 9865 9867 9869 9871 9873 9874
9898 9894 9891 9888 9886 9883 9881 9879 9877 9875 9873 9870 9868 9866 9865 9863 9862 9861 9860 9859 9858 9857 9856 9856 9855 9855 9854 9854 9854 9854 9855 9856 9857 9858 9859 9860 9860 9862 9863 9865 9866 9868